{"data":{"norad_id":68775,"epoch":"2026-05-25T04:00:03.998880Z","epoch_age_seconds":64078,"freshness":"FRESH","line1":"1 68775U 26086K   26145.16671295 -.01912787  00000+0 -26542-1 0  9996","line2":"2 68775  97.2846 182.0015 0001436  93.5744 198.2684 15.60279778  6077","mean_motion":15.60279778,"eccentricity":0.0001436,"inclination_deg":97.2846,"raan_deg":182.0015,"arg_perigee_deg":93.5744,"mean_anomaly_deg":198.2684,"bstar":-0.026542,"rev_number":607,"period_min":92.291140364956,"perigee_km":385.87680944497,"apogee_km":387.81971321202,"semimajor_km":6764.9852613285,"source":"CELESTRAK","updated_at":"2026-05-25T13:38:22.035970Z"}}